+ View the NASA Portal
+ Center for Near-Earth Object Studies
IMPORTANT:
The SSD Announcement email list is now available. Major changes are coming in the near future, including possible hostname and/or URL changes. To be notified of such changes, subscribe to this email list.
Please visit
this page
for more details.
Don't show this message again
JPL Small-Body Database Browser
Search:
[
help
]
117015 (2004 JR6)
Classification:
Main-belt Asteroid
SPK-ID:
2117015
[
Ephemeris
|
Orbit Diagram
|
Orbital Elements
|
Mission Design
|
Physical Parameters
|
Discovery Circumstances
|
Close-Approach Data
]
[ show orbit diagram ]
Orbital Elements at Epoch 2458600.5 (2019-Apr-27.0) TDB
Reference:
JPL 21
(heliocentric ecliptic J2000)
Element
Value
Uncertainty (1-sigma)
Units
e
.197329437454026
5.191e-08
a
2.650891636248415
1.9834e-08
au
q
2.127792680915933
1.3263e-07
au
i
2.296832560943774
5.6624e-06
deg
node
29.01985088659027
0.0001359
deg
peri
274.4277538963942
0.00013662
deg
M
125.7845322210835
1.847e-05
deg
t
p
2458049.678190643558
(2017-Oct-23.17819064)
7.7236e-05
TDB
period
1576.472463401041
4.32
1.7693e-05
4.844e-08
d
yr
n
.2283579373301233
2.5629e-09
deg/d
Q
3.173990591580897
2.3748e-08
au
Orbit Determination Parameters
# obs. used (total)
511
data-arc span
9105 days (24.93 yr)
first obs. used
1994-01-08
last obs. used
2018-12-13
planetary ephem.
DE431
SB-pert. ephem.
SB431-N16
condition code
0
norm. resid. RMS
.60841
source
ORB
producer
Otto Matic
solution date
2019-Jul-13 13:20:43
Additional Information
Earth MOID
= 1.1133 au
Jupiter MOID
= 2.07119 au
T_jup
= 3.361
[ show covariance matrix ]
[
Ephemeris
|
Orbit Diagram
|
Orbital Elements
|
Mission Design
|
Physical Parameters
|
Discovery Circumstances
|
Close-Approach Data
]
Physical Parameter Table
Parameter
Symbol
Value
Units
Sigma
Reference
Notes
absolute magnitude
H
15.6
n/a
MPO375840
117015 (2004 JR6)
Discovered 2004-May-10 by NEAT at Palomar
Reference:
20051019/Numbers.arc
Last Updated:
2005-10-26
[ show close-approach data ]
Alternate Designations
2004 JR6
= 2001 YF34
[
Ephemeris
|
Orbit Diagram
|
Orbital Elements
|
Mission Design
|
Physical Parameters
|
Discovery Circumstances
|
Close-Approach Data
]
2019-Dec-10 20:06 UT
(server date/time)
Site Manager:
Ryan S. Park
Webmaster
:
Alan B. Chamberlin